Preview of NWS' New Version of Forecast
This preview is not operational and should not be used for support decisions.

Regional Weather Roundup (RWR)

Issued by National Weather Service (NWS)

                            
000
ASUS43 KDMX 170106
RWRIA 

WEATHER ROUNDUP FOR IOWA
NATIONAL WEATHER SERVICE DES MOINES IA
700 PM CST SAT FEB 16 2019

NOTE: "FAIR" INDICATES FEW OR NO CLOUDS BELOW 12,000 FEET WITH NO
SIGNIFICANT WEATHER AND/OR OBSTRUCTIONS TO VISIBILITY.

* - THESE STATIONS ARE NOT NWS STATIONS...THUS NOT UNDER NWS
QUALITY CONTROL.  THEY ALSO DO NOT REPORT WEATHER SUCH 
AS PRECIPITATION OR FOG.  

IAZ001>003-012>014-020>022-031>034-043>046-170200-
   NORTHWEST IOWA
  
CITY           SKY/WX    TMP DP  RH WIND       PRES   REMARKS
CARROLL *      CLOUDY    19  14  79 E14       29.85S WCI   6          
CHEROKEE *     CLOUDY    19  15  84 E9        29.88R WCI   8          
DENISON *      CLOUDY    18  12  79 E13       29.85F WCI   4          
LE MARS *      CLOUDY    19  16  86 E7G14     29.87R WCI  10          
ORANGE CITY *  CLOUDY    19  16  86 E8        29.87R WCI   9          
SHELDON *      CLOUDY    16  16 100 E8        29.85S WCI   5          
SIOUX CITY     CLOUDY    20  12  71 E7        29.86R WCI  11          
SPENCER        CLOUDY    18  11  74 E10       29.88F WCI   6          
STORM LAKE *   CLOUDY    18  16  93 E16       29.85R WCI   3          
$$
 
IAZ055>058-069>071-079>083-090>094-170200-
   SOUTHWEST IOWA
  
CITY           SKY/WX    TMP DP  RH WIND       PRES   REMARKS
ATLANTIC *     CLOUDY    19  14  79 E9        29.83F WCI   9          
AUDUBON *      CLOUDY    18  10  73 E5G17     29.82F WCI  11          
CLARINDA *     SNOW      21  18  86 E9G15     29.83S VSB 1/2 WCI  11  
COUNCIL BLFS * CLOUDY    18  14  86 E9        29.82R WCI   6          
CRESTON *      CLOUDY    21  12  68 E15       29.83F WCI   8          
HARLAN  *      CLOUDY    18  12  79 E9        29.84S WCI   6          
LAMONI         CLOUDY    25  16  68 NE8       29.81R WCI  16          
RED OAK *      LGT SNOW  21  16  79 E7G13     29.83R WCI  13          
SHENANDOAH *   SNOW      21  19  93 NE9       29.82S VSB 1/2 WCI  11  
$$
 
IAZ047>049-059>061-072>074-084-170200-
   CENTRAL IOWA
  
CITY           SKY/WX    TMP DP  RH WIND       PRES   REMARKS
AMES           PTCLDY    19  12  74 E9        29.90F WCI   8          
ANKENY *       CLOUDY    19  12  73 E9G16     29.91S WCI   9          
BOONE *        CLOUDY    19  14  79 E16       29.88R WCI   5          
CHARITON *     CLOUDY    21  16  79 NE13      29.84F WCI   9          
DES MOINES     CLOUDY    20  12  71 E14G21    29.89S WCI   7          
GRINNELL*      CLOUDY    20  15  81 E12       29.92R WCI   8          
KNOXVILLE *    CLOUDY    19  18  93 E12       29.88F WCI   7          
MARSHALLTOWN   CLOUDY    19  14  81 E14       29.90S WCI   6          
NEWTON *       CLOUDY    19  16  86 E12       29.91R WCI   7          
PELLA *        CLOUDY    21  14  74 E7        29.91S WCI  12          
PERRY *        MOCLDY    19  13  77 E13       29.87F WCI   6          
$$
 
IAZ004>006-015-016-023>025-035-036-170200-
   NORTH CENTRAL IOWA
  
CITY           SKY/WX    TMP DP  RH WIND       PRES   REMARKS
ALGONA *       CLOUDY    18  14  86 E9G17     29.89S WCI   6          
CLARION *      CLOUDY    18  12  79 E15       29.90S WCI   3          
ESTHERVILLE    CLOUDY    14   9  80 NE12      29.89F WCI   0          
FORT DODGE *   CLOUDY    18  12  77 E13       29.89S WCI   5          
MASON CITY     CLOUDY    15  10  80 E10       29.94R WCI   2          
FOREST CITY *  FAIR      18  12  79 E8        29.92S WCI   7          
IOWA FALLS *   FAIR      20  15  80 E15       29.91F WCI   6          
$$

IAZ007>011-017>019-026>030-037>042-050>054-066-170200-
   NORTHEAST IOWA
  
CITY           SKY/WX    TMP DP  RH WIND       PRES   REMARKS
CEDAR RAPIDS   CLOUDY    23  18  81 E17       29.92F WCI   9          
CHARLES CITY * FAIR      16   9  73 E13       29.93F WCI   2          
CLINTON *      CLOUDY    27  21  78 E14       29.98F WCI  16          
DECORAH *      CLOUDY    19  10  68 E8        29.95F WCI   9          
DUBUQUE        CLOUDY    23  15  71 E14       29.98F WCI  11          
OELWEIN *      FAIR      19  14  79 E12G18    29.93F WCI   7          
WATERLOO       FAIR      16  10  77 E7        29.95F WCI   6          
$$
 
IAZ064-065-067-068-078-170200-
   EAST CENTRAL IOWA
  
CITY           SKY/WX    TMP DP  RH WIND       PRES   REMARKS
DAVENPORT      CLOUDY    28  20  71 E18       29.97F WCI  15          
IOWA CITY      CLOUDY    26  18  71 E10G20    29.95F WCI  16          
MT. PLEASANT * CLOUDY    30  25  80 E15       29.91F WCI  19          
MUSCATINE *    CLOUDY    28  19  69 E16G24    29.95F WCI  17          
QUAD CITIES    CLOUDY    29  21  72 E14       29.96F WCI  18          
$$
 
IAZ062-063-075>077-085>089-095>099-170200-
   SOUTHEAST IOWA
  
CITY           SKY/WX    TMP DP  RH WIND       PRES   REMARKS
BURLINGTON     MOCLDY    28  19  69 E15G24    29.90F WCI  16          
FAIRFIELD *    CLOUDY    27  21  80 E20       29.90R WCI  13          
KEOKUK *       CLOUDY    28  21  74 E17G24    29.90F WCI  16          
OSKALOOSA *    FAIR      22  17  81 E10       29.92R WCI  11          
OTTUMWA        CLOUDY    26  19  74 E10       29.90R WCI  16          
WASHINGTON *   CLOUDY    25  21  86 E14       29.92F WCI  13          
$$

ABBREVIATIONS USED IN REMARKS
   TC - TEMPERATURES IN CELSIUS
  WCI - WIND CHILL INDEX
   HX - HEAT INDEX
  VSB - VISIBILITY  
$$